This demonstration page uses our WeatherBlox Daily Observations layout. Learn more.

Left ArrowRight Arrow

39.12711, -84.51439

Hourly Observations for August 15, 2022

Temp ( °F °C ) Dew Point ( °F °C ) Humidity (%) Winds ( mph kmh ) Pressure ( in mb ) Visibility ( mi km ) Precip ( " mm )
12:28 am 00:28 Cloudy 67 19.4 65 18.3 93 93 NNE 3 6 29.91 1013 10 16 0.01 0.13
12:53 am 00:53 Cloudy 67 19.4 64 17.8 90 90 NNE 5 7 29.91 1013 10 16 0.01 0.13
1:32 am 01:32 Cloudy 67 19.4 64 17.8 90 90 NE 6 9 29.90 1013 10 16 0.00 0.00
1:45 am 01:45 Cloudy 67 19.4 64 17.8 90 90 NNE 6 9 29.90 1013 10 16 0.00 0.00
1:53 am 01:53 Cloudy 67 19.4 64 17.8 90 90 NNE 6 9 29.90 1013 10 16 0.00 0.00
2:14 am 02:14 Mostly Cloudy 66 18.9 64 17.8 93 93 ENE 5 7 29.90 1013 10 16 0.00 0.00
2:21 am 02:21 Mostly Cloudy 66 18.9 64 17.8 93 93 NE 5 7 29.89 1012 10 16 0.00 0.00
2:49 am 02:49 Cloudy 66 19 64 18 94 94 NE 5 7 29.89 1012 10 16 0.00 0.00
2:53 am 02:53 Mostly Cloudy 66 18.9 64 17.8 93 93 NNE 6 9 29.89 1012 10 16 0.00 0.00
3:07 am 03:07 Mostly Cloudy 66 18.9 64 17.8 93 93 NE 6 9 29.89 1012 10 16 0.00 0.00
3:53 am 03:53 Cloudy 66 18.9 64 17.8 93 93 NNE 3 6 29.90 1012 10 16 0.00 0.00
4:53 am 04:53 Cloudy 66 18.9 64 17.8 93 93 NNE 6 9 29.89 1012 10 16 0.00 0.00
5:53 am 05:53 Cloudy 66 18.9 63 17.2 90 90 NNE 7 11 29.91 1013 10 16 0.00 0.00
6:26 am 06:26 Cloudy 66 18.9 63 17.2 90 90 NNE 8 13 29.91 1013 9 14 0.00 0.00
6:53 am 06:53 Cloudy 66 18.9 63 17.2 90 90 NNE 6 9 29.92 1013 8 13 0.00 0.00
7:45 am 07:45 Cloudy 66 18.9 63 17.2 90 90 N 6 9 29.93 1014 7 11 0.00 0.00
7:53 am 07:53 Cloudy 66 18.9 63 17.2 90 90 NNE 7 11 29.93 1014 7 11 0.00 0.00
8:53 am 08:53 Cloudy 67 19.4 64 17.8 90 90 NE 6 9 29.93 1014 8 13 0.00 0.00
9:53 am 09:53 Cloudy 70 21.1 65 18.3 84 84 ENE 5 7 29.93 1014 8 13 0.00 0.00
10:53 am 10:53 Mostly Cloudy 73 22.8 65 18.3 76 76 ENE 9 15 29.94 1014 8 13 0.00 0.00
11:50 am 11:50 Mostly Cloudy 75 24 63 17 65 65 NNE 8 13 29.94 1014 10 16 0.00 0.00
11:53 am 11:53 Mostly Cloudy 75 23.9 64 17.8 69 69 NNE 9 15 29.94 1014 10 16 0.00 0.00
12:53 pm 12:53 Partly Cloudy 77 25 63 17.2 62 62 E 5 7 29.94 1014 10 16 0.00 0.00
1:53 pm 13:53 Mostly Cloudy 77 25 64 17.8 64 64 NE 6 9 29.94 1014 10 16 0.00 0.00
2:53 pm 14:53 Cloudy 78 25.6 63 17.2 60 60 ENE 6 9 29.94 1014 10 16 0.00 0.00
3:53 pm 15:53 Cloudy 78 25.6 63 17.2 60 60 NE 8 13 29.93 1014 10 16 0.00 0.00
4:53 pm 16:53 Cloudy 79 26.1 62 16.7 56 56 NE 7 11 29.92 1013 10 16 0.00 0.00
5:53 pm 17:53 Cloudy 79 26.1 61 16.1 54 54 NE 9 15 29.93 1013 10 16 0.00 0.00
6:53 pm 18:53 Partly Cloudy 79 26.1 61 16.1 54 54 E 3 6 29.92 1013 10 16 0.00 0.00
7:53 pm 19:53 Partly Cloudy 74 23.3 65 18.3 74 74 NE 3 6 29.93 1014 10 16 0.00 0.00
8:53 pm 20:53 Mostly Clear 72 22.2 62 16.7 71 71 NE 5 7 29.94 1014 10 16 0.00 0.00
9:53 pm 21:53 Clear 68 20 64 17.8 87 87 Calm 29.97 1015 10 16 0.00 0.00
10:53 pm 22:53 Clear 64 17.8 63 17.2 96 96 Calm 29.98 1015 10 16 0.00 0.00
11:53 pm 23:53 Clear 65 18.3 63 17.2 93 93 Calm 29.99 1016 9 14 0.00 0.00

Powered by AerisWeather